Location: *
(50.8512°N, 5.6907°E)
Time: 16:40:49
(UTC+00:00)

Cosmos 1892 - Pass Details

Date: 09 April 2020
Orbit: 503 x 525 km, 82.5° (Epoch: 23 May)

Event Time Altitude Azimuth Distance (km) Brightness Sun altitude
Rises 19:55:16 0° 354° (N) 2,675 6.9 -14.1°
Reaches altitude 10° 19:57:31 10° 2° (N) 1,781 5.8 -14.4°
Maximum altitude 20:01:15 42° 74° (ENE) 762 3.2 -14.9°
Enters shadow 20:02:44 29° 124° (SE) 993 3.5 -15.1°
